Regional Weather Roundup
Issued by NWS

Home | Current Version | Previous Version | Graphics & Text | Print | Product List | Glossary On
Versions: 1 2 3 4 5 6 7 8 9 10 11 12 13 14 15 16 17 18 19 20 21 22 23 24 25 26 27 28 29 30 31 32 33 34 35 36 37 38 39 40 41 42 43 44 45 46 47 48 49 50
000
ASUS43 KMPX 211701
RWRMN
WEATHER ROUNDUP FOR MINNESOTA
NATIONAL WEATHER SERVICE TWIN CITIES/CHANHASSEN MN
1100 AM CST SAT JAN 21 2017


NOTE: "FAIR" INDICATES FEW OR NO CLOUDS BELOW 12,000 FEET WITH NO
SIGNIFICANT WEATHER AND/OR OBSTRUCTIONS TO VISIBILITY. N/A MEANS
CURRENT SKY AND/OR WEATHER CONDITIONS ARE NOT AVAILABLE.

MNZ060>063-068>070-211800-
   Twin Cities Metro

CITY           SKY/WX    TMP DP  RH WIND       PRES   REMARKS
TWIN CITIES    DRIZZLE   37  35  92 E7        29.42F FOG
ST PAUL        CLOUDY    36  36 100 CALM      29.44S FOG
CRYSTAL        CLOUDY    36  33  89 E6        29.41F FOG
BLAINE         DRIZZLE   37  37 100 E6        29.42F
LAKEVILLE      CLOUDY    34  34 100 E7        29.41F FOG     WCI  28
EDEN PRAIRIE   CLOUDY    36  35  96 E7        29.41S FOG
SOUTH ST PAUL  CLOUDY    36  36  99 CALM      29.43S FOG
LAKE ELMO      CLOUDY    36  36 100 E5        29.43F
$$
MNZ001>005-007-008-013>017-022>024-027-028-211800-
   Northwest Minnesota

CITY           SKY/WX    TMP DP  RH WIND       PRES   REMARKS
BEMIDJI        FOG       33  33 100 E7        29.46R VSB 1   WCI  27
HALLOCK        CLOUDY    37  36  93 E9        29.44S
ROSEAU         MOSUNNY   36  30  80 E3        29.46F
WARROAD        CLOUDY    34  30  86 E7        29.48S WCI  28
THIEF RVR FALL CLOUDY    36  33  89 E7        29.45S
CROOKSTON      MIX PCPN  36  34  93 SE8       29.44S
FOSSTON        CLOUDY    34  34 100 SE7       29.44S WCI  28
DETROIT LAKES  CLOUDY    34  34 100 E6        29.42F WCI  29
MOORHEAD       CLOUDY    36  34  93 SE5       29.42S
PARK RAPIDS    CLOUDY    35  32  88 E6        29.42F WCI  30
MAHNOMEN       DRIZZLE   34  33  94 E7        29.42F WCI  28
$$
MNZ006-009>011-018-025>026-211800-
   North Central Minnesota

CITY           SKY/WX    TMP DP  RH WIND       PRES   REMARKS
BAUDETTE       CLOUDY    34  33  96 E6        29.47F WCI  29
FLAG ISLAND    CLOUDY    34  34 100 E9        29.48F FOG     WCI  26
INTL FALLS     CLOUDY    34  33  96 E8        29.49F WCI  27
WASKISH        CLOUDY    36  34  93 SE6       29.48R
BIG FORK       CLOUDY    36  34  93 SE6       29.48R
LONGVILLE      CLOUDY    36  34  93 CALM      29.45F
GRAND RAPIDS   FOG       34  34 100 VRB3      29.49S VSB 1/2
CRANE LAKE     CLOUDY    34  34 100 CALM      29.52S
ORR            LGT RAIN  36  34  93 CALM      29.47S
COOK           CLOUDY    34  34 100 CALM      29.50S
WALKER         FOG       33  32  99 CALM      29.46R VSB 1/4
$$
MNZ012-019>021-037-211800-
   Northeast Minnesota

CITY           SKY/WX    TMP DP  RH WIND       PRES   REMARKS
DULUTH         FOG       34  34 100 E9        29.47F VSB 1/4 WCI  27
ELY            CLOUDY    34  34 100 CALM      29.50S
HIBBING        CLOUDY    33  33 100 E7        29.48S FOG     WCI  27
EVELETH        FOG       35  35  99 E3        29.50S VSB 3/4
DULUTH HARBOR  DRIZZLE   34  34 100 NE10      29.51S WCI  26
TWO HARBORS    DRIZZLE   37  32  81 NE6       29.49F
SILVER BAY     CLOUDY    36  36 100 E7        29.50F
GRAND MARAIS     N/A     38  36  92 E9        29.56S
G MARAIS ARPRT FOG       32  28  86 E8        29.52S VSB 1/2 WCI  25
$$
MNZ029>031-032-039>041-046>048-054>057-064-211800-
   West Central Minnesota

CITY           SKY/WX    TMP DP  RH WIND       PRES   REMARKS
FERGUS FALLS   CLOUDY    36  36 100 SE8       29.45S
WHEATON        FOG       43  43 100 E8        29.42S VSB 1
MORRIS         DRIZZLE   36  34  93 E12       29.39S
ALEXANDRIA     FOG       33  33 100 E9        29.41F VSB 1/4 WCI  25
ELBOW LAKE     CLOUDY    33  33 100 SE8       29.41S FOG     WCI  26
WADENA         FOG       34  34 100 E3        29.42S VSB 1/2
GLENWOOD       MIX PCPN  34  34 100 E9        29.41F VSB 1/4 WCI  26
APPLETON       MIX PCPN  36  34  93 E7        29.40R VSB 1/4
BENSON         CLOUDY    37  34  87 SE5       29.42S
ORTONVILLE     FOG       34  32  93 CALM      29.39S VSB 3/4
MADISON        FOG       37  37 100 E8        29.39S VSB 1/4
WILLMAR        CLOUDY    36  36 100 E8        29.41S FOG
$$
MNZ033>034-036-042>043-049>051-058-059-211800-
   Central Minnesota

CITY           SKY/WX    TMP DP  RH WIND       PRES   REMARKS
ST CLOUD       FOG       34  34 100 E8        29.43S VSB 1/2 WCI  27
SAUK CENTRE    LGT RAIN  33  33 100 E5        29.42S VSB 1   WCI  28
PAYNESVILLE    LGT SNOW  34  34 100 NE7       29.42S WCI  28
AITKIN         FOG       36  34  93 NE6       29.44S VSB 1/4
PINE RIVER     CLOUDY    34  34 100 E5        29.49F FOG     WCI  30
BRAINERD       CLOUDY    34  34 100 NE7       29.44F FOG     WCI  28
STAPLES        DRIZZLE   34  34 100 E5        29.42F WCI  30
LONG PRAIRIE   SNOW      32  32 100 NE7       29.43R VSB 1/2 WCI  26
LITTLE FALLS   MIX PCPN  34  32  93 E5        29.44S WCI  30
LITCHFIELD     FOG       36  36 100 E6        29.41F VSB 1
BUFFALO        CLOUDY    35  34  96 NE5       29.43F FOG     WCI  31
MAPLE LAKE     FOG       35  36 100 E7        29.43S VSB 1/2 WCI  30
HUTCHINSON     FOG       35  36 100 NE7       29.41F VSB 1/4 WCI  29
$$
MNZ037-044-045-052-053-211800-
   East Central Minnesota

CITY           SKY/WX    TMP DP  RH WIND       PRES   REMARKS
PRINCETON      CLOUDY    36  36 100 N5        29.43F FOG
MORA           DRIZZLE   34  32  93 E3        29.47S
CAMBRIDGE      DRIZZLE   37  36  93 CALM      29.42F
RUSH CITY      CLOUDY    36  34  93 NE3       29.45S FOG
MOOSE LAKE     LGT RAIN  34  34 100 NE3       29.45F
HINCKLEY       CLOUDY    36  36 100 NE5       29.45F FOG
CLOQUET        DRIZZLE   34  34 100 E5        29.47F WCI  30
MCGREGOR       CLOUDY    34  34 100 E6        29.46F VSB 3/4 WCI  29
$$
MNZ071>073-080-081-089-090-097-098-211800-
   Southwest Minnesota

CITY           SKY/WX    TMP DP  RH WIND       PRES   REMARKS
MONTEVIDEO     FOG       34  34 100 SE7       29.41S VSB 1/4 WCI  28
GRANITE FALLS  CLOUDY    36  36 100 E6        29.41S FOG
CANBY          FOG       35  35 100 CALM      29.39S VSB 1/2
MARSHALL       CLOUDY    34  34 100 SE8       29.39R FOG     WCI  27
REDWOOD FALLS  CLOUDY    35  33  92 E7        29.39S FOG     WCI  29
OLIVIA         CLOUDY    34  34 100 E6        29.40R FOG     WCI  29
PIPESTONE      SNOW      36  36 100 S3        29.35S VSB 1/2
WINDOM         FOG       37  36  93 CALM      29.38S VSB 3/4
WORTHINGTON    FOG       36  36 100 S5        29.38  VSB 1/4
JACKSON        CLOUDY    34  34 100 CALM      29.38S FOG
TRACY          FOG       35  36 100 E3        29.38S VSB 1/4
SLAYTON        FOG       33  33 100 SE6       29.37S VSB 1/2 WCI  28
$$
MNZ065>067-074>077-082>085-091>093-211800-
   South Central Minnesota

CITY           SKY/WX    TMP DP  RH WIND       PRES   REMARKS
MANKATO        CLOUDY    37  36  96 E6        29.40S FOG
NEW ULM        FOG       34  34 100 E5        29.40S VSB 1/4 WCI  30
ST JAMES       FOG       36  36 100 SE3       29.40S VSB 1/4
FAIRMONT       FOG       36  35  96 CALM      29.39S VSB 1/4
GLENCOE        CLOUDY    36  36 100 E5        29.40F FOG
OWATONNA       CLOUDY    36  34  93 E3        29.40S FOG
WASECA         FOG       36  36 100 E6        29.41S VSB 3/4
ALBERT LEA     FOG       36  36 100 S3        29.39S VSB<1/4
$$
MNZ078>079-086>088-094>096-211800-
   Southeast Minnesota

CITY           SKY/WX    TMP DP  RH WIND       PRES   REMARKS
ROCHESTER      FOG       34  34 100 S7        29.40S VSB 1/4 WCI  28
RED WING       CLOUDY    37  36  93 CALM      29.41F
STANTON        CLOUDY    36  34  92 NE3       29.40S
DODGE CENTER   DRZL/FOG  34  34 100 CALM      29.39S VSB<1/4
WINONA         CLOUDY    36  36 100 SE5       29.44R FOG
AUSTIN         FOG       36  34  93 CALM      29.39S VSB<1/4
PRESTON        FOG       35  34  97 CALM      29.40S VSB<1/4
$$
ABBREVIATIONS USED IN REMARKS
   TC - TEMPERATURES IN CELSIUS
  WCI - WIND CHILL INDEX
   HX - HEAT INDEX
  VSB - VISIBILITY
$$




USA.gov is the U.S. government's official web portal to all federal, state and local government web resources and services.